FW0960 Weather Reports


time (UTC)temp
C
wind
direction
speed
KPH
gust
KPH
rain 1hr
cm
rain 24hr
cm
rain mn
cm
humidity
%
barometer
mb
20260503174903 12 196 3.2 12.9 0.00 0.00 0.00 48 1015.5
20260503173905 12 188 3.2 12.9 0.00 0.00 0.00 49 1015.5
20260503173403 12 182 3.2 11.3 0.00 0.00 0.00 50 1015.5
20260503172403 12 202 1.6 14.5 0.00 0.00 0.00 49 1015.7
20260503171901 12 158 3.2 9.7 0.00 0.00 0.00 51 1015.6
20260503170907 12 231 3.2 12.9 0.00 0.00 0.00 50 1015.7
20260503170402 12 213 3.2 12.9 0.00 0.00 0.00 52 1015.7
20260503150835 10 177 3.2 16.1 0.00 0.00 0.00 60 1016.0
20260503150343 10 183 3.2 16.1 0.00 0.00 0.00 59 1016.1
20260503130253 8 206 1.6 8.0 0.00 0.00 0.00 69 1015.9
20260503110739 7 189 1.6 6.4 0.00 0.00 0.00 74 1014.5
20260503110239 6 176 1.6 6.4 0.00 0.00 0.00 75 1014.5
20260503100237 6 153 0.0 0.0 0.00 0.00 0.00 76 1013.5
20260503090233 7 221 0.0 0.0 0.00 0.00 0.00 74 1012.8
20260503081225 7 192 0.0 0.0 0.00 0.00 0.00 72 1012.6
20260503080726 7 192 0.0 0.0 0.00 0.00 0.00 72 1012.5
20260503072208 8 195 0.0 0.0 0.00 0.00 0.00 69 1012.3
20260503071205 8 211 0.0 0.0 0.00 0.00 0.00 69 1012.3
20260503070702 8 211 0.0 0.0 0.00 0.00 0.00 67 1012.2
20260503070157 9 202 0.0 3.2 0.00 0.00 0.00 66 1012.1
20260503060136 10 215 1.6 8.0 0.00 0.00 0.00 61 1012.2
20260503054634 10 198 1.6 6.4 0.00 0.00 0.00 65 1011.9
20260503054136 11 196 1.6 6.4 0.00 0.00 0.00 65 1012.0
20260503053633 11 209 1.6 6.4 0.00 0.00 0.00 65 1011.9
20260503053133 11 189 1.6 9.7 0.00 0.00 0.00 65 1012.1
20260503052631 11 224 1.6 9.7 0.00 0.00 0.00 65 1011.9
20260503052135 11 205 1.6 8.0 0.00 0.00 0.00 65 1011.8
20260503051630 11 210 3.2 9.7 0.00 0.00 0.00 64 1011.9
20260503051132 11 222 3.2 9.7 0.00 0.00 0.00 63 1011.8
20260503050130 11 200 1.6 12.9 0.00 0.00 0.00 63 1012.0
20260503045633 11 205 1.6 8.0 0.00 0.00 0.00 63 1012.2
20260503045129 11 205 1.6 8.0 0.00 0.00 0.00 63 1012.1
20260503044633 11 206 1.6 4.8 0.00 0.00 0.00 63 1012.1
20260503044126 11 209 1.6 4.8 0.00 0.00 0.00 61 1012.1
20260503043643 11 204 1.6 9.7 0.00 0.00 0.00 61 1012.1
20260503042626 11 203 1.6 4.8 0.00 0.00 0.00 60 1012.3
20260503042125 11 202 1.6 12.9 0.00 0.00 0.00 59 1012.3
20260503041623 11 204 1.6 12.9 0.00 0.00 0.00 60 1012.3
20260503041124 11 187 1.6 4.8 0.00 0.00 0.00 61 1012.3
20260503040625 11 191 1.6 6.4 0.00 0.00 0.00 61 1012.2
20260503040125 11 201 1.6 6.4 0.00 0.00 0.00 59 1012.3
20260503035623 11 202 1.6 4.8 0.00 0.00 0.00 59 1012.7
20260503035130 11 210 1.6 4.8 0.00 0.00 0.00 59 1012.8
20260503034623 11 225 1.6 6.4 0.00 0.00 0.00 59 1012.6
20260503034139 11 190 1.6 6.4 0.00 0.00 0.00 59 1012.5
20260503033123 11 213 1.6 9.7 0.00 0.00 0.00 60 1012.4
20260503032620 12 215 1.6 8.0 0.00 0.00 0.00 58 1012.4
20260503032120 12 214 1.6 8.0 0.00 0.00 0.00 58 1012.3
20260503031112 12 217 1.6 6.4 0.00 0.00 0.00 57 1012.6
20260503030614 12 187 1.6 6.4 0.00 0.00 0.00 56 1012.5
20260503030114 12 207 1.6 4.8 0.00 0.00 0.00 57 1012.6
20260503025615 12 235 1.6 4.8 0.00 0.00 0.00 56 1012.5
20260503024610 12 216 1.6 6.4 0.00 0.00 0.00 56 1012.6
20260503024112 12 200 1.6 6.4 0.00 0.00 0.00 58 1012.6
20260503023613 12 220 1.6 6.4 0.00 0.00 0.00 57 1012.6
20260503023110 12 200 1.6 6.4 0.00 0.00 0.00 57 1012.4
20260503022610 12 199 1.6 6.4 0.00 0.00 0.00 56 1012.4
20260503022108 12 208 1.6 8.0 0.00 0.00 0.00 55 1012.4
20260503021613 12 209 1.6 11.3 0.00 0.00 0.00 55 1012.4
20260503021111 12 188 1.6 11.3 0.00 0.00 0.00 57 1012.5
20260503020609 12 220 1.6 4.8 0.00 0.00 0.00 55 1012.3
20260503020108 12 198 1.6 4.8 0.00 0.00 0.00 55 1012.3
20260503015610 12 204 1.6 4.8 0.00 0.00 0.00 55 1012.2
20260503015112 12 205 1.6 4.8 0.00 0.00 0.00 55 1012.3
20260503014609 12 200 1.6 3.2 0.00 0.00 0.00 55 1012.5
20260503014114 12 207 1.6 3.2 0.00 0.00 0.00 55 1012.4
20260503013609 12 206 1.6 3.2 0.00 0.00 0.00 56 1012.4
20260503012107 12 204 1.6 3.2 0.00 0.00 0.00 58 1012.3
20260503011105 13 204 1.6 3.2 0.00 0.00 0.00 59 1012.3
20260503010605 13 204 1.6 3.2 0.00 0.00 0.00 58 1012.0
20260503010105 13 204 1.6 3.2 0.00 0.00 0.00 59 1012.0
20260503005609 13 204 1.6 3.2 0.00 0.00 0.00 59 1011.9
20260503005110 13 202 1.6 6.4 0.00 0.00 0.00 59 1011.8
20260503004608 13 205 1.6 6.4 0.00 0.00 0.00 58 1012.0
20260503004106 13 190 1.6 3.2 0.00 0.00 0.00 60 1011.8
20260503003601 13 199 1.6 3.2 0.00 0.00 0.00 63 1011.6
20260503003104 13 200 1.6 3.2 0.00 0.00 0.00 63 1011.6
20260503002605 13 200 0.0 3.2 0.00 0.00 0.00 64 1011.7
20260503002110 13 200 0.0 3.2 0.00 0.00 0.00 63 1011.7
20260503001605 13 200 0.0 3.2 0.00 0.00 0.00 63 1011.7
20260503000040 13 200 0.0 1.6 0.00 0.00 0.00 61 1011.7
20260502235532 13 198 0.0 1.6 0.00 0.00 0.00 61 1011.7
20260502235033 13 198 1.6 1.6 0.00 0.00 0.00 60 1011.6
20260502234532 13 198 1.6 3.2 0.00 0.00 0.00 60 1011.6
20260502234030 13 198 1.6 3.2 0.00 0.00 0.00 61 1011.3
20260502233032 13 206 1.6 3.2 0.00 0.00 0.00 59 1011.0
20260502232534 13 205 1.6 3.2 0.00 0.00 0.00 59 1011.3
20260502232030 13 205 1.6 3.2 0.00 0.00 0.00 58 1011.4
20260502231534 13 199 1.6 3.2 0.00 0.00 0.00 59 1011.4
20260502231037 13 200 1.6 3.2 0.00 0.00 0.00 58 1011.4
20260502230030 13 208 1.6 3.2 0.00 0.00 0.00 57 1011.5
20260502225532 13 204 1.6 3.2 0.00 0.00 0.00 57 1011.7
20260502225032 13 204 1.6 4.8 0.00 0.00 0.00 58 1011.5
20260502224531 13 202 1.6 4.8 0.00 0.00 0.00 57 1011.5
20260502224030 13 204 1.6 3.2 0.00 0.00 0.00 59 1011.6
20260502223530 13 202 1.6 3.2 0.00 0.00 0.00 57 1011.7
20260502223034 13 198 1.6 3.2 0.00 0.00 0.00 56 1011.6
20260502222521 13 201 1.6 3.2 0.00 0.00 0.00 57 1011.6
20260502221516 13 203 0.0 1.6 0.00 0.00 0.00 58 1011.4
20260502221019 13 205 1.6 1.6 0.00 0.00 0.00 58 1011.6
20260502220525 13 201 1.6 3.2 0.00 0.00 0.00 60 1011.6
20260502215515 13 200 1.6 3.2 0.00 0.00 0.00 62 1011.7
20260502215011 13 200 1.6 3.2 0.00 0.00 0.00 59 1011.6
20260502214013 13 188 1.6 6.4 0.00 0.00 0.00 59 1011.7
20260502213511 13 210 1.6 6.4 0.00 0.00 0.00 57 1011.6
20260502213013 13 198 1.6 1.6 0.00 0.00 0.00 59 1011.8
20260502212511 13 197 1.6 3.2 0.00 0.00 0.00 59 1011.6
20260502212013 13 200 1.6 3.2 0.00 0.00 0.00 58 1011.7
20260502211511 13 198 1.6 6.4 0.00 0.00 0.00 58 1011.8
20260502211012 13 205 1.6 6.4 0.00 0.00 0.00 56 1011.6
20260502210510 13 213 1.6 4.8 0.00 0.00 0.00 60 1011.6
20260502210006 13 207 1.6 4.8 0.00 0.00 0.00 60 1011.4
20260502205503 13 216 1.6 6.4 0.00 0.00 0.00 62 1011.4
20260502204503 13 199 1.6 8.0 0.00 0.00 0.00 59 1011.2
20260502204008 13 207 1.6 8.0 0.00 0.00 0.00 59 1011.3
20260502203503 13 194 1.6 6.4 0.00 0.00 0.00 57 1011.5
20260502203006 13 180 1.6 6.4 0.00 0.00 0.00 61 1011.5
20260502202504 13 174 1.6 9.7 0.00 0.00 0.00 63 1011.3
20260502202003 13 173 1.6 9.7 0.00 0.00 0.00 63 1011.2
20260502201502 13 201 1.6 8.0 0.00 0.00 0.00 65 1011.4
20260502200502 13 215 1.6 8.0 0.00 0.00 0.00 66 1011.4
20260502200007 13 208 1.6 8.0 0.00 0.00 0.00 65 1011.6
20260502195503 13 178 1.6 9.7 0.00 0.00 0.00 66 1011.4
20260502195025 13 217 1.6 9.7 0.00 0.00 0.00 66 1011.5
20260502194001 13 219 1.6 9.7 0.00 0.00 0.00 68 1011.5
20260502193503 13 197 1.6 9.7 0.00 0.00 0.00 70 1011.7
20260502193003 13 242 1.6 6.4 0.00 0.00 0.00 69 1011.9
20260502192506 13 198 1.6 6.4 0.00 0.00 0.00 71 1012.1
20260502192006 13 198 1.6 6.4 0.00 0.00 0.00 71 1012.2
20260502191501 13 209 1.6 6.4 0.00 0.00 0.00 71 1012.2
20260502191005 13 209 1.6 6.4 0.00 0.00 0.00 73 1012.1
20260502190506 13 202 1.6 6.4 0.00 0.00 0.00 73 1012.1
20260502190008 12 202 1.6 6.4 0.00 0.00 0.00 73 1012.2
20260502185503 12 214 1.6 6.4 0.00 0.00 0.00 74 1012.5
20260502185007 12 211 1.6 8.0 0.00 0.00 0.00 73 1012.6
20260502184502 12 235 1.6 8.0 0.00 0.00 0.00 73 1012.8
20260502184001 12 190 1.6 8.0 0.00 0.00 0.00 74 1012.7
20260502183501 12 193 1.6 6.4 0.00 0.00 0.00 73 1012.8
20260502183008 12 186 1.6 6.4 0.00 0.00 0.00 74 1012.7
20260502182505 12 186 1.6 8.0 0.00 0.00 0.00 74 1012.8
20260502182007 12 188 1.6 8.0 0.00 0.00 0.00 74 1013.0
20260502181005 13 205 1.6 9.7 0.00 0.00 0.00 75 1013.0
20260502180503 13 188 1.6 9.7 0.00 0.00 0.00 74 1013.1